Terminal Aerodrome Forecast
Issued by NWS

Home | Current Version | Previous Version | Text Only | Print | Product List | Glossary Off
Versions: 1 2 3 4 5 6 7 8 9 10 11 12 13 14 15 16 17 18 19 20 21 22 23 24 25 26 27 28 29 30 31 32 33

000
FTUS43 KABR 151130
TAFPIR
TAF
KPIR 151130Z 1512/1612 12012KT P6SM OVC100
     FM151800 13011KT P6SM -SHRA VCTS BKN025CB
     FM152200 12008KT P6SM BKN045
     FM160100 07008KT P6SM OVC060
     FM160400 VRB06KT P6SM OVC025
     FM160800 VRB06KT P6SM BKN015=

USA.gov is the U.S. government's official web portal to all federal, state and local government web resources and services.